Regional Weather Roundup
Issued by NWS

Home | Current Version | Previous Version | Graphics & Text | Print | Product List | Glossary On
Versions: 1 2 3 4 5 6 7 8 9 10 11 12 13 14 15 16 17 18 19 20 21 22 23 24 25 26 27 28 29 30 31 32 33 34 35 36 37 38 39 40 41 42 43 44 45 46 47 48 49 50
000
ASUS43 KIND 121409
RWRIN

WEATHER ROUNDUP FOR INDIANA
NATIONAL WEATHER SERVICE INDIANAPOLIS IN
900 AM EST FRI FEB 12 2016

NOTE: "FAIR" INDICATES FEW OR NO CLOUDS BELOW 12,000 FEET WITH NO
SIGNIFICANT WEATHER AND/OR OBSTRUCTIONS TO VISIBILITY.

* - STATION DOES NOT REPORT WEATHER SUCH AS PRECIPITATION OR FOG.

+ - STATION NOT QUALITY CONTROLLED BY THE NATIONAL WEATHER SERVICE.
    USE DATA WITH CAUTION...ESPECIALLY DEWPOINT AND RELATIVE
    HUMIDITY OBSERVATIONS.

INZ001>003-010>013-019-020-121500-
NORTHWEST INDIANA

CITY           SKY/WX    TMP DP  RH WIND       PRES   REMARKS
GARY /AIRPORT/ CLOUDY    23   9  54 W17       30.16  WCI   9
KNOX *+        CLOUDY    21  14  73 W10       30.14F WCI  10
LA PORTE +     CLOUDY    20  15  78 W8        30.13S WCI  11
MICHIGAN CITY+ CLOUDY    19  12  73 SW7       30.14S WCI  10
MONTICELLO +   CLOUDY    21  10  63 W10       30.16F WCI   9
RENSSELAER +   CLOUDY    23  18  80 SW10G17   30.16S WCI  12
VALPARAISO     CLOUDY    20  13  74 W12       30.14S WCI   8

$$

LMZ046-743>745-121500-
SOUTHERN LAKE MICHIGAN

STATION/POSITION TIME  TEMP    WIND        PRES    WAVE
                       AIR SEA DIR/SP/G            HT
                 (UTC) (F)     (DEG/KT/KT) (MB)    (FT)
BURNS HARBOR     1300   20     220/  9/ 14 1021.3F
MICHIGAN CITY    1300   22     240/ 22/ 24   N/A

$$

INZ004-005-014>016-021>024-121500-
NORTH CENTRAL INDIANA

CITY           SKY/WX    TMP DP  RH WIND       PRES   REMARKS
ELKHART        CLOUDY    19   9  63 SW10      30.11F WCI   8
GOSHEN         CLOUDY    19   9  65 SW13      30.10F WCI   6
LOGANSPORT +   CLOUDY    21   9  58 SW10      30.16F WCI  10
PERU/GRISSOM   CLOUDY    20  12  70 SW10      30.13F WCI   9
ROCHESTER +    PTSUNNY   23  10  58 SW8       30.14F WCI  14
SOUTH BEND     CLOUDY    17  10  74 SW12      30.11F WCI   4
WARSAW +       CLOUDY    19  10  68 SW9       30.12F WCI   9

$$

INZ006>009-017-018-025>027-121500-
NORTHEAST INDIANA

CITY           SKY/WX    TMP DP  RH WIND       PRES   REMARKS
ANGOLA *+      CLOUDY    18   9  68 SW8       30.06F WCI   7
AUBURN +       CLOUDY    19  10  68 SW8       30.11F WCI   9
FORT WAYNE     CLOUDY    19  10  68 SW13      30.13F WCI   6
HUNTINGTON +   CLOUDY    19   7  60 SW6       30.13F WCI  10

$$

INZ028-029-035-036-043>045-051>053-121500-
WEST CENTRAL INDIANA

CITY           SKY/WX    TMP DP  RH WIND       PRES   REMARKS
GREENCASTLE +  CLOUDY    21   9  58 W5        30.19S WCI  15
LAFAYETTE      FLURRIES  20  12  71 W8        30.18F WCI  10
TERRE HAUTE    CLOUDY    23  14  68 W7        30.21F WCI  15

$$

INZ030>032-037>040-046>048-054>057-064-065-121500-
CENTRAL INDIANA

CITY           SKY/WX    TMP DP  RH WIND       PRES   REMARKS
COLUMBUS       CLOUDY    23  14  68 SW6       30.19S WCI  16
FISHERS *+     CLOUDY    21  14  73 W5        30.17S WCI  15
FRANKFORT +    MOSUNNY   22   7  54 SW7       30.18F WCI  13
GREENWOOD *+   CLOUDY    23  14  68 CALM      30.18S
INDIANAPOLIS   CLOUDY    21  10  62 SW6       30.17S WCI  13
-EAGLE CREEK   CLOUDY    22   8  55 SW5       30.17S WCI  16
KOKOMO *+      CLOUDY    19   9  63 W9        30.15F WCI   9
MARION +       CLOUDY    19   7  57 SW8       30.16S WCI   9
MT COMFORT *+  CLOUDY    21   9  58 SW5       30.17S WCI  15
SHELBYVILLE    CLOUDY    22  12  65 SW5       30.17S WCI  16
ZIONSVILLE +   CLOUDY    20  14  76 W3        30.17S

$$

INZ033-034-041-042-049-050-058-059-121500-
EAST CENTRAL INDIANA

CITY           SKY/WX    TMP DP  RH WIND       PRES   REMARKS
MUNCIE         CLOUDY    20   8  60 SW6       30.15S WCI  12

$$

INZ060-061-067>069-081>083-085>088-121500-
SOUTHWEST INDIANA

CITY           SKY/WX    TMP DP  RH WIND       PRES   REMARKS
EVANSVILLE     CLOUDY    26  21  81 N3        30.24S
HUNTINGBURG *+ CLOUDY    27  18  69 NW8       30.23S WCI  18
WASHINGTON +   FLURRIES  24  19  80 NW3       30.23S

$$

INZ062-063-066-070>080-084-089>092-121500-
SOUTH CENTRAL AND SOUTHEAST INDIANA

CITY           SKY/WX    TMP DP  RH WIND       PRES   REMARKS
BEDFORD +      FLURRIES  23  16  74 CALM      30.21R
BLOOMINGTON    CLOUDY    23  15  71 W7        30.19R WCI  15
MADISON *+     PTSUNNY   25  12  58 CALM      30.20R
NORTH VERNON + CLOUDY    23  14  68 CALM      30.20R
SEYMOUR +      CLOUDY    25  12  58 CALM      30.21R

$$




USA.gov is the U.S. government's official web portal to all federal, state and local government web resources and services.